OBJECT H, 57173

Orbit data source: Space-Track

You're viewing an Uncataloged Satellite

Recently launched and/or uncataloged satellites may have evolving metadata. Metadata may include but not limited to: Owner, Maufacturer, Bus, Motor, and Mission.

OBJECT H, 57173 is a satellite in SSO that was launched on Tue, 27 Jun 2023 UTC via a SOYUZ-2-1B launch vehicle from the Vostochny Cosmodrome (VOSTO). Unknown objects in Earth's orbit typically refer to objects detected orbiting the Earth but have not yet been identified or cataloged. These objects could be anything from previously untracked satellites, spent rocket stages, debris from satellite collisions, or even natural meteoroids temporarily captured by Earth's gravity.

Loading next visibility...
Identifier
57173, 2023-091H
Orbit
SSO
Country
Flag of TBDTBD
Related business
None
Manufacturer
Unknown
Mission
Operational Commercial Communications
Bus & Motor
Unknown
Mass
Unknown
Launch date (UTC)
2023-06-27 (2 years ago)
Launch vehicle
SOYUZ-2-1B
Launch site
Vostochny Cosmodrome (VOSTO)
Object type
Unknown
Shape & HBR
Box, 0.1 m
Radar Cross Section
0.035 m², Small (<0.1 m²)

Expand to show TLE details & history
Last TLE update: 7 hours ago

TLE from 7 hours ago
0 OBJECT H
1 57173U 23091H   25304.63419231  .00016249  00000-0  70258-3 0  9998
2 57173  97.5402   1.5142 0011030 190.2481 169.8532 15.22486380129459
Epoch: 2025-10-31T15:13Z
TLE epoch observation values (Epoch: 2025-10-31T15:13:14.215Z)
Latitude
-0.00002°
Longitude
93.02916°
Altitude
508.902 km
Speed
7.605 km/s
True Right ascension
00h 06m 03s
True Declination
0° 00' 00"
Sunlit
Object was in full shadow at epoch
Visualization orbit readout
Latitude
Unknown
Longitude
Unknown
Altitude
Unknown
Speed
Unknown
Apparent Right ascension
Unknown
Apparent Declination
Unknown
Sunlit
N/A
Visualization observer readout
Local Sidereal Time
18:20:02
Azimuth
Unknown
Elevation
Unknown
Doppler factor
Unknown
Orbital elements
Apogee altitude
502.893 km
Perigee altitude
487.731 km
Semi-major axis
6,873.449 km
Eccentricity
0.0011
Inclination
97.5402°
RAAN
1.5142°
Arg. of periapsis
190.2481°
True anomaly
169.87544°
Mean anomaly
169.8532°
Eccentric anomaly
169.86432°
Mean motion
3.80874 °/min
Orbital period
94.52 mins
BSTAR
0.00070258
Loading maneuver chart data...
Computing Atmospheric mass density...
Loading historical data...
Loading historical data...
Loading historical data...
Loading historical data...
Loading historical data...
Loading historical data...
Loading historical data...

Documentation

Showing up to 5 results
|